Regional Weather Roundup
Issued by NWS

Home | Current Version | Previous Version | Text Only | Print | Product List | Glossary Off
Versions: 1 2 3 4 5 6 7 8 9 10 11 12 13 14 15 16 17 18 19 20 21 22 23 24 25 26 27 28 29 30 31 32 33 34 35 36 37 38 39 40 41 42 43 44 45 46 47 48 49 50

000
ASUS43 KLOT 041112
RWRIL

ILLINOIS REGIONAL WEATHER ROUNDUP
NATIONAL WEATHER SERVICE CHICAGO/ROMEOVILLE IL
600 AM CDT MON MAY 04 2015

NOTE: "FAIR" INDICATES FEW OR NO CLOUDS BELOW 12,000 FEET WITH NO
SIGNIFICANT WEATHER AND/OR OBSTRUCTIONS TO VISIBILITY.

* THESE STATIONS ARE NOT UNDER NWS QUALITY CONTROL. THEY ALSO MAY NOT
  REPORT WEATHER SUCH AS PRECIPITATION OR FOG.

ILZ001-002-007-009-015-016-024-041200-
NORTHWEST ILLINOIS

CITY           SKY/WX    TMP DP  RH WIND       PRES   REMARKS
MOLINE         LGT RAIN  60  57  89 S6        30.00R
STERLING*      CLOUDY    61  55  82 CALM      29.99R
SAVANNA*       LGT RAIN  59  57  92 SW3       29.97S
$$

ILZ003-004-008-010-011-017-018-041200-
NORTH CENTRAL ILLINOIS

CITY           SKY/WX    TMP DP  RH WIND       PRES   REMARKS
ROCKFORD       CLOUDY    60  55  83 SW3       29.98R
FREEPORT*      CLOUDY    58  55  91 W10       29.98R
ROCHELLE*      CLOUDY    58  56  94 W6        29.98R
DE KALB*       CLOUDY    58  54  87 SW6       29.97R
PERU*          LGT RAIN  60  58  92 S13       29.99F
$$

ILZ005-006-012>014-019>023-041200-
NORTHEAST ILLINOIS

CITY           SKY/WX    TMP DP  RH WIND       PRES   REMARKS
CHICAGO-OHARE  CLOUDY    60  54  80 W6        29.94R
CHICAGO-MIDWAY CLOUDY    65  54  67 S15G21    29.93R
AURORA         LGT RAIN  62  54  74 S15       29.95R
LANSING*       CLOUDY    59  54  82 S10       29.95F
JOLIET*        LGT RAIN  64  58  82 SW12G17   30.00R
WAUKEGAN       CLOUDY    58  55  90 SW7       29.94R
DUPAGE AIRPORT CLOUDY    60  55  83 SW7       29.95R
KANKAKEE*      CLOUDY    62  56  81 SW8       30.02R
WHEELING       CLOUDY    60  53  77 NW5       29.96R
MORRIS*        RAIN      61  57  86 SW14      29.98R
ROMEOVILLE*    RAIN      61  55  81 SW15      29.99R
NORTHERLY ISL    N/A     64  51  62 SW5         N/A
$$

LMZ740>746-041200-
SOUTHERN LAKE MICHIGAN

STATION/POSITION SKY/WX   TEMP    WIND        PRES    VSBY  WAVE
                          AIR SEA DIR/SP/G                  HT/PER
                          (F)     (DEG/KT/KT) (MB)    (MI)  (FT/S)
HARRISON CRIB              62     200/ 16/ 17   N/A
BURNHAM HARBOR             64     230/  7/ 12   N/A
CALUMET HARBOR             65     200/  8/ 10   N/A
BURNS HARBOR               66     220/ 13/ 18 1014.6S
MICHIGAN CITY              66     200/ 18/ 22   N/A
MICHIGAN CITY 6N           58 50  190/ 12/ 16   N/A           2/ 3
ST. JOSEPH                 56 47  230/ 10/ 12   N/A           2/ 3
$$

ILZ025>027-034>036-040-047-049-050-058-095>099-041200-
WEST-CENTRAL ILLINOIS

CITY           SKY/WX    TMP DP  RH WIND       PRES   REMARKS
QUINCY         CLOUDY    67  55  65 W7        30.01R
GALESBURG*     CLOUDY    59  57  94 SE5       30.02R
MACOMB*        CLOUDY    59  59  99 SE8       30.04R
JACKSONVILLE*  CLOUDY    69  58  66 SW7       30.02R
PITTSFIELD*    CLOUDY    69  56  62 SW7       30.03R
$$

ILZ028>032-037-038-041>044-048-051>054-059>061-041200-
CENTRAL ILLINOIS

CITY           SKY/WX    TMP DP  RH WIND       PRES   REMARKS
PONTIAC        TSTM      61  59  94 CALM      30.03S
BLOOMINGTON    TSTM      61  57  88 W6        30.06R FOG
DECATUR        LGT RAIN  64  53  67 SW15      30.03R
PEORIA         TSTM      62  58  86 VRB3      30.04R FOG
LACON*         LGT RAIN  59  57  91 SE7       29.99F
LINCOLN*       CLOUDY    64  56  77 CALM      30.02R
SPRINGFIELD    CLOUDY    67  54  63 SW9       30.02R
TAYLORVILLE    CLOUDY    61  54  77 S9        30.04R
$$

ILZ033-039-045-046-055>057-062-063-041200-
EAST-CENTRAL ILLINOIS

CITY           SKY/WX    TMP DP  RH WIND       PRES   REMARKS
CHAMPAIGN      CLOUDY    63  51  65 SW13      30.03R
DANVILLE*      CLOUDY    63  50  62 SW12      30.00R
RANTOUL*       CLOUDY    64  53  66 SW13      30.03R
MATTOON        CLOUDY    63  48  58 S10       30.04R
PARIS*         CLOUDY    64  50  61 S14G20    30.05R
$$

ILZ079-100>102-041200-
SOUTHWEST ILLINOIS

CITY           SKY/WX    TMP DP  RH WIND       PRES   REMARKS
ALTON          CLOUDY    65  53  64 S6        30.06R
BELLEVILLE     CLOUDY    64  55  72 S2        30.06R
CAHOKIA*       LGT RAIN  65  55  70 S3        30.06R
SPARTA*        CLOUDY    64  51  62 S8        30.08R
$$

ILZ064>066-069>071-074>076-080>082-084>086-088>090-092>094-041200-
SOUTH-CENTRAL ILLINOIS

CITY           SKY/WX    TMP DP  RH WIND       PRES   REMARKS
CARBONDALE     MOCLDY    59  51  75 SE3       30.09R
CAIRO*         PTCLDY    63  51  66 S5        30.11R
EFFINGHAM*     CLOUDY    64  46  52 S7        30.07R
MARION         MOCLDY    59  52  77 S5        30.10R
MT. VERNON     CLOUDY   N/A N/A N/A S5        30.09R
CENTRALIA*     CLOUDY    64  48  57 S10       30.07R
SALEM*         CLOUDY    67  49  50 S10G17    30.07R
METROPOLIS*    PTCLDY    65  53  64 S6        30.10R
$$

ILZ067-068-072-073-078-083-087-091-041200-
SOUTHEAST ILLINOIS

CITY           SKY/WX    TMP DP  RH WIND       PRES   REMARKS
LAWRENCEVILLE  CLOUDY    61  52  72 S6        30.09R
FLORA*         MOCLDY    64  50  60 S8        30.07R
FAIRFIELD*     CLOUDY    63  51  66 S6        30.08R
HARRISBURG*    MOCLDY    62  51  66 S5        30.11R
ROBINSON*      MOCLDY    60  50  70 S8        30.09R
CARMI*         MOCLDY    59  50  73 S6        30.10R
$$

ABBREVIATIONS USED IN REMARKS
   TC - TEMPERATURE IN CELSIUS
  WCI - WIND CHILL INDEX
   HX - HEAT INDEX
  VSB - VISIBILITY
$$




USA.gov is the U.S. government's official web portal to all federal, state and local government web resources and services.